Location: Famechon
(49.7599°N, 2.0615°E)
Time: 16:29:00
(UTC+00:00)

Cosmos 2278 - Pass Details

Date: 03 February 2023
Orbit: 838 x 853 km, 71.1° (Epoch: 26 March)

Event Time Altitude Azimuth Distance (km) Brightness Sun altitude
Rises 18:00:45 0° 217° (SW) 3,389 7.7 -11.7°
Reaches altitude 10° 18:03:12 10° 221° (SW) 2,461 6.9 -12.1°
Maximum altitude 18:08:49 64° 303° (WNW) 937 4.1 -13.0°
Drops below altitude 10° 18:14:30 10° 25° (NNE) 2,487 5.8 -13.9°
Enters shadow 18:16:15 - 27° (NNE) 3,144 6.3 -14.2°
